Regional Weather Roundup
Issued by NWS Wilmington, NC

Home | Current Version | Previous Version | Text Only | Print | Product List | Glossary On
Versions: 1 2 3 4 5 6 7 8 9 10 11 12 13 14 15 16 17 18 19 20 21 22 23 24 25 26 27
000
ASUS42 KILM 232112
RWRILM
RWRILM
REGIONAL HOURLY WEATHER ROUNDUP
NATIONAL WEATHER SERVICE WILMINGTON NC
500 PM EDT SAT JUL 23 2016

NOTE: "FAIR" INDICATES FEW OR NO CLOUDS BELOW 12,000 FEET WITH NO
SIGNIFICANT WEATHER AND/OR OBSTRUCTIONS TO VISIBILITY.

...............WFO WILMINGTON COUNTY WARNING AREA...............

......COASTAL NC AND SC COUNTIES......

CITY           SKY/WX    TMP DP  RH WIND       PRES   REMARKS
WILMINGTON     MOSUNNY   88  73  61 S13       29.96F HX  95
N MYRTLE BEACH SUNNY     87  75  67 S16G24    29.97S HX  96
MYRTLE BEACH   MOSUNNY   90  72  55 S17       29.98F HX  96

......INLAND NC AND SC COUNTIES.......

CITY           SKY/WX    TMP DP  RH WIND       PRES   REMARKS
LUMBERTON      MOSUNNY   93  76  57 SW6       29.94F HX 105
ELIZABETHTOWN  LGT RAIN  88  73  62 SE6       29.94F HX  95
WHITEVILLE     MOSUNNY   92  75  57 S5        29.95S HX 103
FLORENCE       SUNNY     94  71  47 SW9       29.96S HX 101
DARLINGTON     CLOUDY    90  74  59 SW9       29.96S HX  99
KINGSTREE      FAIR      90  73  58 SE10      29.96S HX  98
HARTSVILLE     FAIR      91  68  46 SW7       29.96S HX  95
BENNETTSVILLE  FAIR      91  77  62 S3        29.95S HX 105
CONWAY         LGT RAIN  84  75  74 N3        29.97S HX  92
GEORGETOWN     FAIR      86  77  74 S12       30.00S HX  97
MARION           N/A     88  73  62 S13       29.96R HX  96

....................REST OF NORTH CAROLINA......................

.........EASTERN NC.........

CITY           SKY/WX    TMP DP  RH WIND       PRES   REMARKS
CAPE HATTERAS  SUNNY     87  76  69 SW13      29.97F HX  97
JACKSONVILLE   MOSUNNY   91  77  63 S9        29.96S HX 104
MOREHEAD CITY  SUNNY     86  77  74 S13       29.98F HX  97
KENANSVILLE    MOSUNNY   91  73  54 CALM      29.95F HX  99
NEW BERN       SUNNY     91  72  53 S9        29.97S HX  98
ELIZABETH CITY SUNNY     92  74  55 S12       29.93F HX 101

.........CENTRAL NC.........

CITY           SKY/WX    TMP DP  RH WIND       PRES   REMARKS
RALEIGH DURHAM MOSUNNY   93  74  53 SW7       29.96S HX 103
ROCKY MOUNT    SUNNY     93  76  57 S6        29.95S HX 105
ROANOKE RAPIDS NOT AVBL
FAYETTEVILLE   SUNNY     93  72  50 S6        29.94S HX 101
HOFFMAN        TSTM      77  72  83 W17G24    29.97S

.........WESTERN NC.........

CITY           SKY/WX    TMP DP  RH WIND       PRES   REMARKS
CHARLOTTE      PTSUNNY   88  72  58 S10       29.98R HX  94
GREENSBORO     PTSUNNY   91  68  46 W8        29.98S HX  95
HICKORY        NOT AVBL
BOONE          NOT AVBL
ASHEVILLE      NOT AVBL

.....................REST OF SOUTH CAROLINA.....................

.........EASTERN SC.........

CITY           SKY/WX    TMP DP  RH WIND       PRES   REMARKS
CHARLESTON     MOSUNNY   94  73  50 S12       29.97F HX 103
BEAUFORT MCAS  MOSUNNY   93  76  57 SE5       29.97F HX 105
HILTON HEAD    MOSUNNY   95  75  52 S15       29.99F HX 107

.........CENTRAL SC.........

CITY           SKY/WX    TMP DP  RH WIND       PRES   REMARKS
COLUMBIA       TSTM      83  73  72 N9G20     29.97R
ORANGEBURG     MOSUNNY   95  70  44 SW8       29.96F HX 101
SUMTER SHAW    MOSUNNY   95  71  46 SW10      29.94S HAZE    HX 103

.........WESTERN SC.........

CITY           SKY/WX    TMP DP  RH WIND       PRES   REMARKS
GREENVILLE     NOT AVBL
ROCK HILL      SUNNY     92  68  45 S14       29.98S HX  96
ANDERSON       CLOUDY    84  68  58 W10       30.02S
CLEMSON        NOT AVBL
GREENWOOD      CLOUDY    85  69  58 SW5       30.01F


...................COASTAL AND OFFSHORE REPORTS..................

................LOCAL PIERS AND NC RESERVE................


STATION/POSITION TIME  SKY/WX   TEMP    WIND        PRES    VSBY
                                AIR SEA DIR/SP/G
                 (UTC)          (F)     (DEG/KT/KT) (MB)    (MI)
JOHNY MRCER PIER NOT AVBL
NC RESRV MASNBRO NOT AVBL
OCEAN CREST PIER NOT AVBL
SPRINGMAID  PIER NOT AVBL


................COASTAL AND OFFSHORE BUOYS................


STATION/POSITION TIME  SKY/WX   TEMP    WIND        PRES    VSBY
                                AIR SEA DIR/SP/G
                 (UTC)          (F)     (DEG/KT/KT) (MB)    (MI)
DIMNDSHOAL 41025 NOT AVBL
CAPE LOOKOUT     NOT AVBL
ONSLOW BAY 41036 NOT AVBL
ONSLOW BAY 41064 NOT AVBL
ONSLOW BAY 41159 NOT AVBL
5SE WRITBC 41038 NOT AVBL
MASNBO INL 41110 NOT AVBL
WILM HARBR 41108 NOT AVBL
27SE WRITB 41037 NOT AVBL
FRYING PAN 41013 NOT AVBL
SUNST NRSH 41024 NOT AVBL
CAPRS NRSH 41029 NOT AVBL
EDISTO     41004 NOT AVBL


..........OFFSHORE BUOYS BEYOND 100 NM OFFSHORE...........
.....IN A TRIANGLE---HAT TO BERMUDA TO BAHAMAS TO HAT.....


STATION/POSITION TIME  SKY/WX   TEMP    WIND        PRES    VSBY
                                AIR SEA DIR/SP/G
                 (UTC)          (F)     (DEG/KT/KT) (MB)    (MI)
150E HAT   41001 NOT AVBL
W BERMUDA  41048 NOT AVBL
ATLANTIC S 41049 NOT AVBL
E BAHAMAS  41046 NOT AVBL
NE BAHAMAS 41047 NOT AVBL
120E CANVRL41010 NOT AVBL

END




USA.gov is the U.S. government's official web portal to all federal, state and local government web resources and services.